Weather History for Glendive, MT

Change the Weather History Date:

Tuesday, November 15, 2011

  Actual Average Record
Temperature  
Mean Temperature 22 °F -  
Max Temperature 33 °F 38 °F 64 °F (2001)
Min Temperature 12 °F 19 °F 1 °F (1997)
Degree Days  
Heating Degree Days 42    
Moisture  
Dew Point 14 °F    
Average Humidity 66    
Maximum Humidity 86    
Minimum Humidity 35    
Precipitation  
Precipitation 0.00 in - - ()
Sea Level Pressure  
Sea Level Pressure 29.82 in    
Wind  
Wind Speed 18 mph (WNW)    
Max Wind Speed 30 mph    
Max Gust Speed 39 mph    
Visibility 10 miles    
Events      
Averages and records for this station are not official NWS values.
T = Trace of Precipitation, MM = Missing Value Source: NWS Daily Summary

Daily Weather History Graph

Daily Weather History Graph

Search for Another Location

Airport:

Trip Planner

Search our weather history database for the weather conditions in past years. The results will help you decide how hot, cold, wet, or windy it might be!

Date:

Astronomy

Nov. 15, 2011 Rise Set
Actual Time 7:02 AM MST 4:24 PM MST
Civil Twilight 6:29 AM MST 4:57 PM MST
Nautical Twilight 5:52 AM MST 5:34 PM MST
Astronomical Twilight 5:16 AM MST 6:10 PM MST
Moon 8:35 PM MST (11/15) 11:06 AM MST (11/15)
Length of Visible Light 10h 28m
Length of Day
9h 21m
Waning Gibbous, 78% of the Moon is Illuminated
Nov 15
Waning Gibbous
Nov 18
Last Quarter
Nov 24
New
Dec 2
First Quarter
Dec 10
Full

Hourly Weather History & Observations

Time (MST) Temp. Windchill Dew Point Humidity Pressure Visibility Wind Dir Wind Speed Gust Speed Precip Events Conditions
12:15 AM 32.0 °F 20.1 °F 24.8 °F 75% 29.52 in 10.0 mi WNW 19.6 mph 39.1 mph N/A   Mostly Cloudy
12:55 AM 30.2 °F 17.1 °F 23.0 °F 75% 29.54 in 10.0 mi WNW 21.9 mph 29.9 mph N/A   Overcast
1:15 AM 30.2 °F 16.8 °F 23.0 °F 75% 29.56 in 10.0 mi WNW 23.0 mph 32.2 mph N/A   Overcast
1:35 AM 30.2 °F 18.1 °F 21.2 °F 69% 29.57 in 10.0 mi WNW 18.4 mph 31.1 mph N/A   Overcast
1:55 AM 28.4 °F 15.8 °F 21.2 °F 74% 29.59 in 10.0 mi WNW 18.4 mph 25.3 mph N/A   Mostly Cloudy
2:35 AM 26.6 °F 14.3 °F 19.4 °F 74% 29.62 in 10.0 mi West 16.1 mph - N/A   Scattered Clouds
2:55 AM 26.6 °F 13.1 °F 19.4 °F 74% 29.63 in 10.0 mi WNW 19.6 mph 24.2 mph N/A   Scattered Clouds
3:15 AM 26.6 °F 13.8 °F 19.4 °F 74% 29.63 in 10.0 mi WNW 17.3 mph 20.7 mph N/A   Clear
3:35 AM 26.6 °F 13.4 °F 19.4 °F 74% 29.64 in 10.0 mi WNW 18.4 mph - N/A   Clear
3:55 AM 26.6 °F 14.3 °F 19.4 °F 74% 29.66 in 10.0 mi WNW 16.1 mph 24.2 mph N/A   Clear
4:15 AM 24.8 °F 12.4 °F 19.4 °F 80% 29.67 in 10.0 mi WNW 15.0 mph 21.9 mph N/A   Clear
4:35 AM 24.8 °F 11.9 °F 17.6 °F 74% 29.68 in 10.0 mi WNW 16.1 mph 23.0 mph N/A   Clear
4:55 AM 24.8 °F 11.1 °F 17.6 °F 74% 29.69 in 10.0 mi WNW 18.4 mph 26.5 mph N/A   Clear
5:55 AM 24.8 °F 11.9 °F 17.6 °F 74% 29.72 in 10.0 mi WNW 16.1 mph - N/A   Clear
6:15 AM 24.8 °F 11.9 °F 15.8 °F 69% 29.73 in 10.0 mi West 16.1 mph 20.7 mph N/A   Partly Cloudy
6:35 AM 24.8 °F 10.0 °F 15.8 °F 69% 29.74 in 10.0 mi West 21.9 mph - N/A   Clear
6:55 AM 23.0 °F 8.3 °F 15.8 °F 74% 29.75 in 10.0 mi WNW 19.6 mph 26.5 mph N/A   Clear
7:15 AM 24.8 °F 11.1 °F 15.8 °F 69% 29.76 in 10.0 mi West 18.4 mph 27.6 mph N/A   Scattered Clouds
7:35 AM 24.8 °F 10.3 °F 15.8 °F 69% 29.78 in 10.0 mi West 20.7 mph - N/A   Overcast
7:55 AM 26.6 °F 12.4 °F 17.6 °F 69% 29.78 in 10.0 mi WNW 21.9 mph 26.5 mph N/A   Overcast
8:15 AM 26.6 °F 12.4 °F 17.6 °F 69% 29.79 in 10.0 mi WNW 21.9 mph 27.6 mph N/A   Mostly Cloudy
8:35 AM 26.6 °F 12.0 °F 15.8 °F 64% 29.79 in 10.0 mi WNW 23.0 mph 32.2 mph N/A   Partly Cloudy
9:15 AM 28.4 °F 13.5 °F 15.8 °F 59% 29.81 in 10.0 mi WNW 26.5 mph 35.7 mph N/A   Partly Cloudy
9:55 AM 28.4 °F 13.3 °F 15.8 °F 59% 29.81 in 10.0 mi WNW 27.6 mph 35.7 mph N/A   Partly Cloudy
10:15 AM 30.2 °F 17.1 °F 15.8 °F 55% 29.82 in 10.0 mi West 21.9 mph 35.7 mph N/A   Scattered Clouds
10:56 AM 30.2 °F 15.4 °F 14.0 °F 51% 29.82 in 10.0 mi WNW 28.8 mph 36.8 mph N/A   Mostly Cloudy
11:15 AM 30.2 °F 15.9 °F 15.8 °F 55% 29.82 in 10.0 mi WNW 26.5 mph 35.7 mph N/A   Mostly Cloudy
11:35 AM 30.2 °F 15.2 °F 12.2 °F 47% 29.81 in 10.0 mi WNW 29.9 mph 38.0 mph N/A   Mostly Cloudy
11:55 AM 32.0 °F 18.6 °F 12.2 °F 44% 29.81 in 10.0 mi WNW 25.3 mph 39.1 mph N/A   Partly Cloudy
12:15 PM 32.0 °F 18.1 °F 10.4 °F 41% 29.81 in 10.0 mi WNW 27.6 mph 35.7 mph N/A   Clear
12:55 PM 33.8 °F 22.2 °F 10.4 °F 38% 29.84 in 10.0 mi WNW 20.7 mph 33.4 mph N/A   Clear
1:15 PM 33.8 °F 22.8 °F 10.4 °F 38% 29.85 in 10.0 mi WNW 18.4 mph 28.8 mph N/A   Clear
1:55 PM 33.8 °F 21.6 °F 8.6 °F 35% 29.86 in 10.0 mi West 23.0 mph 32.2 mph N/A   Partly Cloudy
2:35 PM 30.2 °F 17.4 °F 8.6 °F 40% 29.88 in 10.0 mi West 20.7 mph 27.6 mph N/A   Scattered Clouds
2:56 PM 30.2 °F 17.8 °F 8.6 °F 40% 29.88 in 10.0 mi West 19.6 mph 24.2 mph N/A   Scattered Clouds
3:15 PM 30.2 °F 17.8 °F 10.4 °F 44% 29.90 in 10.0 mi West 19.6 mph 24.2 mph N/A   Mostly Cloudy
3:35 PM 26.6 °F 13.8 °F 15.8 °F 64% 29.91 in 10.0 mi West 17.3 mph - N/A   Overcast
3:55 PM 28.4 °F 18.0 °F 12.2 °F 51% 29.91 in 10.0 mi WNW 12.7 mph 27.6 mph N/A   Mostly Cloudy
4:15 PM 26.6 °F 16.8 °F 12.2 °F 55% 29.92 in 10.0 mi West 10.4 mph - N/A   Mostly Cloudy
4:55 PM 26.6 °F 16.8 °F 15.8 °F 64% 29.93 in 10.0 mi WNW 10.4 mph 21.9 mph N/A   Mostly Cloudy
5:15 PM 24.8 °F 16.9 °F 15.8 °F 69% 29.93 in 10.0 mi WNW 6.9 mph - N/A   Mostly Cloudy
5:35 PM 24.8 °F 16.1 °F 17.6 °F 74% 29.94 in 10.0 mi WNW 8.1 mph - N/A   Mostly Cloudy
5:55 PM 21.2 °F 12.6 °F 15.8 °F 80% 29.94 in 10.0 mi WNW 6.9 mph - N/A   Partly Cloudy
6:15 PM 17.6 °F 7.3 °F 12.2 °F 79% 29.94 in 10.0 mi West 8.1 mph - N/A   Clear
6:35 PM 15.8 °F 5.1 °F 12.2 °F 86% 29.94 in 10.0 mi West 8.1 mph - N/A   Clear
6:55 PM 15.8 °F 6.1 °F 10.4 °F 79% 29.94 in 10.0 mi West 6.9 mph - N/A   Clear
7:15 PM 12.2 °F 0.7 °F 8.6 °F 85% 29.94 in 10.0 mi West 8.1 mph - N/A   Clear
7:55 PM 14.0 °F 2.0 °F 10.4 °F 86% 29.94 in 10.0 mi WSW 9.2 mph - N/A   Clear
8:15 PM 14.0 °F 1.2 °F 10.4 °F 86% 29.94 in 10.0 mi WSW 10.4 mph - N/A   Clear
8:35 PM 15.8 °F 3.4 °F 12.2 °F 86% 29.95 in 10.0 mi WSW 10.4 mph - N/A   Clear
8:55 PM 15.8 °F 5.1 °F 10.4 °F 79% 29.95 in 10.0 mi West 8.1 mph - N/A   Clear
9:35 PM 17.6 °F 4.3 °F 10.4 °F 73% 29.95 in 10.0 mi West 12.7 mph - N/A   Clear
9:55 PM 19.4 °F 6.6 °F 10.4 °F 68% 29.97 in 10.0 mi West 12.7 mph - N/A   Clear
10:35 PM 17.6 °F 5.7 °F 8.6 °F 68% 29.98 in 10.0 mi WNW 10.4 mph - N/A   Clear
10:55 PM 17.6 °F 7.3 °F 8.6 °F 68% 29.99 in 10.0 mi NW 8.1 mph - N/A   Clear
11:15 PM 17.6 °F 5.7 °F 6.8 °F 63% 30.00 in 10.0 mi WNW 10.4 mph - N/A   Clear
11:35 PM 19.4 °F 6.6 °F 10.4 °F 68% 30.00 in 10.0 mi NW 12.7 mph - N/A   Clear
11:55 PM 21.2 °F 9.5 °F 8.6 °F 58% 30.01 in 10.0 mi WNW 11.5 mph - N/A   Clear